Track COSMOS 2502 now! 10-day predictions COSMOS 2502 is classified as:
1 40358U 14086A 25184.18182196 -.00000015 00000-0 42555-4 0 9997 2 40358 67.1511 136.9410 0005302 250.1587 109.8927 13.97760839536884